[[{"header":{"parameterUnit":"m.s-1","parameterCategory":1,"la1":30.2992,"la2":30.254,"lo1":-89.0895,"lo2":-89.0443,"dy":0.0025,"dx":0.0025,"nx":19,"ny":19,"refTime":"2026-03-08T21:00:00:Z","depth":0,"parameterNumber":2,"parameterNumberName":"U-component_of_WINDS"},"data":[0,0,0,-1.1415,-1.1415,-1.1441,-1.1441,-1.1476,-1.1476,0,0,0,0,0,0,0,0,0,0,0,-1.1408,-1.1408,-1.1415,-1.1415,-1.1441,-1.1441,-1.1476,-1.1476,0,0,0,0,0,0,0,0,0,0,0,-1.1407,-1.1408,-1.1408,-1.1416,-1.1441,-1.1441,-1.1476,-1.1456,0,0,0,0,0,0,0,0,0,0,-1.143,-1.1424,-1.1408,-1.1408,-1.1416,-1.1441,-1.1441,-1.1455,-1.1457,-1.1464,0,-1.1471,0,-1.1474,-1.1478,-1.1478,0,0,0,-1.1415,-1.1422,-1.1429,-1.1408,-1.1416,-1.1441,-1.143,-1.1456,-1.1458,-1.1467,-1.1471,-1.1472,-1.1474,-1.1479,-1.1479,-1.152,-1.152,0,0,-1.1414,-1.1413,-1.1427,-1.143,-1.1426,-1.1429,-1.143,-1.1457,-1.1462,-1.1471,-1.1473,-1.1475,-1.1479,-1.1479,-1.152,-1.152,0,0,0,-1.141,-1.1412,-1.1417,-1.1429,-1.1433,-1.1429,-1.1431,-1.1461,-1.1463,-1.1474,-1.1475,-1.1479,-1.1479,-1.152,-1.152,-1.1528,0,0,0,-1.1409,-1.1409,-1.1417,-1.1416,-1.1433,-1.1447,-1.1434,-1.1461,-1.1464,-1.1475,-1.1479,-1.148,-1.152,-1.152,-1.1527,-1.1532,0,0,0,-1.1406,-1.1409,-1.1413,-1.1416,-1.1427,-1.1447,-1.145,-1.1461,-1.1465,-1.1478,-1.148,-1.152,-1.152,-1.1527,-1.1531,-1.1542,0,0,0,-1.1402,-1.142,-1.1413,-1.1433,-1.1427,-1.1451,-1.145,-1.1469,-1.1481,-1.1479,-1.152,-1.152,-1.1526,-1.153,-1.1541,-1.155,-1.1554,0,0,-1.1424,-1.1422,-1.1435,-1.1429,-1.1454,-1.1447,-1.1474,-1.1487,-1.1491,-1.151,-1.1511,-1.1527,-1.1531,-1.1541,-1.1577,-1.158,0,0,0,-1.1441,-1.145,-1.1457,-1.1468,-1.1478,-1.1487,-1.1496,-1.1501,-1.1518,-1.15,-1.1535,-1.1537,-1.1543,-1.1547,-1.155,-1.1555,-1.1522,-1.1522,-1.1522,-1.147,-1.1472,-1.1492,-1.1497,-1.1508,-1.1517,-1.1527,-1.1535,-1.1534,-1.1543,-1.1548,-1.1569,-1.1574,-1.1576,-1.1582,-1.1554,-1.1554,-1.1554,-1.1554,-1.1501,-1.1513,-1.1512,-1.153,-1.1533,-1.1549,-1.1558,-1.1557,-1.1573,-1.1565,-1.1571,-1.1562,-1.1579,-1.1584,-1.1554,-1.1554,-1.1554,-1.1554,-1.1554,-1.152,-1.1526,-1.1531,-1.1547,-1.156,-1.1565,-1.1579,-1.1581,-1.1583,-1.1589,-1.1595,-1.1595,-1.1594,-1.1592,-1.1592,-1.1592,-1.1592,-1.1592,-1.1592,-1.1537,-1.1542,-1.1554,-1.1565,-1.1572,-1.1582,-1.1591,-1.1599,-1.1608,-1.1608,-1.1608,-1.1606,-1.1581,-1.1574,-1.1593,-1.1593,-1.1593,-1.1593,-1.1593,-1.1567,-1.156,-1.1578,-1.1585,-1.1599,-1.161,-1.1613,-1.1627,-1.1634,-1.1641,-1.1638,-1.1619,-1.1618,-1.1616,-1.161,-1.1638,-1.1638,-1.1638,-1.1638,-1.1582,-1.1582,-1.16,-1.1611,-1.1622,-1.1626,-1.1646,-1.1653,-1.1659,-1.1663,-1.166,-1.1653,-1.1651,-1.1651,-1.1648,-1.1643,-1.1678,-1.1678,-1.1678,-1.16,-1.1601,-1.1617,-1.1623,-1.1633,-1.1642,-1.1661,-1.1674,-1.1681,-1.168,-1.1667,-1.1665,-1.1653,-1.165,-1.1648,-1.1644,-1.1634,0,0]},{"header":{"parameterUnit":"m.s-1","parameterCategory":1,"la1":30.2992,"la2":30.254,"lo1":-89.0895,"lo2":-89.0443,"dy":0.0025,"dx":0.0025,"nx":19,"ny":19,"refTime":"2026-03-08T21:00:00:Z","depth":0,"parameterNumber":3,"parameterNumberName":"V-component_of_WINDS"},"data":[0,0,0,2.9104,2.9106,2.9212,2.9212,2.9347,2.9348,0,0,0,0,0,0,0,0,0,0,0,2.907,2.9071,2.9104,2.9106,2.9212,2.9212,2.9347,2.9348,0,0,0,0,0,0,0,0,0,0,0,2.9069,2.907,2.9071,2.9107,2.9212,2.9212,2.9346,2.9267,0,0,0,0,0,0,0,0,0,0,2.9165,2.913,2.907,2.9071,2.9107,2.9212,2.9213,2.9264,2.9272,2.9298,0,2.9318,0,2.9335,2.9357,2.9357,0,0,0,2.9109,2.9123,2.9154,2.9071,2.9108,2.9212,2.9165,2.9269,2.9278,2.9309,2.932,2.9325,2.9337,2.9358,2.9358,2.9493,2.9493,0,0,2.9103,2.9088,2.9147,2.916,2.9141,2.9162,2.9168,2.9274,2.9285,2.932,2.9328,2.9339,2.9358,2.9359,2.9492,2.9493,0,0,0,2.9085,2.9083,2.9112,2.9154,2.9173,2.9165,2.9172,2.9281,2.9291,2.9329,2.9341,2.9359,2.9361,2.9492,2.9492,2.9503,0,0,0,2.9081,2.9073,2.9109,2.9101,2.9171,2.9228,2.9176,2.9284,2.9296,2.934,2.9359,2.9362,2.9491,2.9492,2.9501,2.951,0,0,0,2.9064,2.9071,2.9085,2.91,2.9144,2.9226,2.9243,2.9287,2.9303,2.9357,2.9362,2.9491,2.9492,2.95,2.9508,2.9543,0,0,0,2.9041,2.9092,2.9084,2.9146,2.9143,2.9231,2.9243,2.9309,2.9356,2.936,2.9491,2.9492,2.9499,2.9507,2.9541,2.957,2.9579,0,0,2.9096,2.9098,2.9135,2.9132,2.9216,2.9216,2.9304,2.9362,2.9382,2.9455,2.9459,2.9502,2.9508,2.9542,2.9638,2.9645,0,0,0,2.9147,2.9174,2.92,2.9244,2.9289,2.933,2.9377,2.9399,2.9462,2.9416,2.9523,2.9527,2.9548,2.9563,2.9569,2.9589,2.9498,2.9498,2.9498,2.9203,2.9226,2.929,2.9326,2.9369,2.9417,2.9455,2.9494,2.9504,2.9529,2.9551,2.9606,2.9622,2.9627,2.9648,2.9567,2.9567,2.9567,2.9567,2.9287,2.933,2.9343,2.941,2.9435,2.9492,2.9542,2.9548,2.9606,2.959,2.961,2.9592,2.9635,2.9654,2.9568,2.9568,2.9568,2.9567,2.9567,2.9328,2.9352,2.9378,2.9445,2.9495,2.953,2.9586,2.9607,2.9626,2.9646,2.9673,2.9673,2.9677,2.9657,2.9657,2.9657,2.9657,2.9658,2.9658,2.936,2.9389,2.9432,2.9486,2.9518,2.9563,2.9614,2.9647,2.9689,2.97,2.97,2.971,2.9634,2.9615,2.9661,2.966,2.966,2.966,2.9659,2.944,2.9425,2.9493,2.9525,2.9591,2.9641,2.9666,2.9732,2.9762,2.979,2.9796,2.9736,2.9739,2.9734,2.9719,2.9789,2.9789,2.9789,2.9789,2.9475,2.9478,2.9553,2.9604,2.9656,2.9686,2.9765,2.9806,2.9847,2.9868,2.986,2.9842,2.9835,2.9843,2.9836,2.9822,2.9916,2.9916,2.9917,2.9526,2.9536,2.9598,2.9636,2.969,2.9736,2.9812,2.9872,2.9915,2.9922,2.9885,2.988,2.985,2.9839,2.9845,2.9833,2.9809,0,0]}]]